Weather History for KOOA - January, 2014

Change the Weather History Date:

Sunday, January 5, 2014

  Actual Average (KOTM) Record (KOTM)
Temperature  
Mean Temperature 2 °F 23 °F  
Max Temperature 12 °F 32 °F 65 °F (2012)
Min Temperature -7 °F 14 °F -20 °F (1924)
Degree Days  
Heating Degree Days 62 42  
Month to date heating degree days 210  
Since 1 July heating degree days 2715  
Cooling Degree Days 0 0  
Month to date cooling degree days 0  
Year to date cooling degree days 0  
Moisture  
Dew Point -6 °F    
Average Humidity 64    
Maximum Humidity 72    
Minimum Humidity 48    
Precipitation  
Precipitation 0.00 in 0.04 in 1.33 in (1955)
Month to date precipitation 0.17  
Year to date precipitation 0.17  
Sea Level Pressure  
Sea Level Pressure 30.23 in    
Wind  
Wind Speed 21 mph (NNW)    
Max Wind Speed 36 mph    
Max Gust Speed 44 mph    
Visibility 10 miles    
Events      
T = Trace of Precipitation, MM = Missing Value Source: NWS Daily Summary

Daily Weather History Graph

Daily Weather History Graph

Search for Another Location

Airport or City:

Trip Planner

Search our weather history database for the weather conditions in past years. The results will help you decide how hot, cold, wet, or windy it might be!

Date:

Astronomy

Jan. 05, 2014 Rise Set
Actual Time 7:35 AM CST 4:55 PM CST
Civil Twilight 7:04 AM CST 5:26 PM CST
Nautical Twilight 6:30 AM CST 6:00 PM CST
Astronomical Twilight 5:56 AM CST 6:34 PM CST
Moon 10:14 AM CST (1/5) 10:27 PM CST (1/5)
Length of Visible Light 10h 21m
Length of Day
9h 19m
Waxing Crescent, 25% of the Moon is Illuminated
Jan 5
Waxing Crescent
Jan 7
First Quarter
Jan 15
Full
Jan 23
Last Quarter
Jan 30
New

Hourly Weather History & Observations

Time (CST) Temp. Windchill Dew Point Humidity Pressure Visibility Wind Dir Wind Speed Gust Speed Precip Events Conditions
12:15 AM 12.0 °F -6.0 °F 4.1 °F 71% 30.10 in 10.0 mi North 19.6 mph - N/A   Overcast
12:35 AM 11.7 °F -7.0 °F 3.6 °F 70% 30.11 in 10.0 mi North 20.7 mph 25.3 mph N/A   Overcast
12:55 AM 11.7 °F -5.5 °F 3.6 °F 70% 30.12 in 10.0 mi North 17.3 mph 23.0 mph N/A   Overcast
1:15 AM 11.3 °F -6.5 °F 3.7 °F 72% 30.12 in 10.0 mi North 18.4 mph 24.2 mph N/A   Overcast
1:35 AM 10.9 °F -7.9 °F 3.4 °F 72% 30.12 in 10.0 mi North 20.7 mph - N/A   Overcast
1:55 AM 10.4 °F -6.6 °F 3.0 °F 72% 30.12 in 10.0 mi North 16.1 mph - N/A   Overcast
2:15 AM 10.2 °F -8.4 °F 2.5 °F 71% 30.11 in 10.0 mi North 19.6 mph 24.2 mph N/A   Overcast
2:35 AM 9.9 °F -9.3 °F 2.3 °F 71% 30.13 in 10.0 mi North 20.7 mph 24.2 mph N/A   Overcast
2:55 AM 9.5 °F -7.2 °F 1.8 °F 71% 30.12 in 10.0 mi North 15.0 mph 20.7 mph N/A   Overcast
3:15 AM 8.6 °F -11.0 °F 0.9 °F 71% 30.12 in 10.0 mi North 20.7 mph 24.2 mph N/A   Overcast
3:35 AM 8.2 °F -10.5 °F 0.5 °F 71% 30.12 in 10.0 mi North 18.4 mph 26.5 mph N/A   Overcast
3:55 AM 7.7 °F -10.7 °F -0.4 °F 70% 30.13 in 10.0 mi North 17.3 mph 27.6 mph N/A   Overcast
4:15 AM 7.7 °F -11.7 °F -0.4 °F 70% 30.12 in 10.0 mi North 19.6 mph 25.3 mph N/A   Overcast
4:35 AM 7.5 °F -11.9 °F -0.4 °F 70% 30.13 in 10.0 mi North 19.6 mph 26.5 mph N/A   Overcast
4:55 AM 7.5 °F -9.7 °F -0.2 °F 71% 30.14 in 10.0 mi North 15.0 mph - N/A   Overcast
5:15 AM 7.5 °F -7.7 °F -0.4 °F 70% 30.15 in 10.0 mi North 11.5 mph - N/A   Overcast
5:35 AM 7.2 °F -10.8 °F -0.4 °F 71% 30.15 in 10.0 mi North 16.1 mph 25.3 mph N/A   Overcast
5:55 AM 6.8 °F -11.8 °F -0.6 °F 72% 30.14 in 10.0 mi North 17.3 mph - N/A   Overcast
6:15 AM 6.4 °F -12.3 °F -1.1 °F 71% 30.16 in 10.0 mi North 17.3 mph 25.3 mph N/A   Overcast
6:35 AM 5.9 °F -13.5 °F -1.3 °F 72% 30.17 in 10.0 mi North 18.4 mph 23.0 mph N/A   Overcast
6:55 AM 5.7 °F -13.8 °F -1.7 °F 72% 30.19 in 10.0 mi North 18.4 mph - N/A   Overcast
7:15 AM 5.4 °F -13.1 °F -2.2 °F 71% 30.19 in 10.0 mi NNW 16.1 mph - N/A   Overcast
7:35 AM 5.0 °F -15.2 °F -2.4 °F 72% 30.19 in 10.0 mi North 19.6 mph 23.0 mph N/A   Overcast
7:55 AM 4.8 °F -14.4 °F -3.1 °F 70% 30.21 in 10.0 mi NNW 17.3 mph 26.5 mph N/A   Overcast
8:15 AM 4.5 °F -16.4 °F -3.5 °F 70% 30.22 in 10.0 mi North 20.7 mph 28.8 mph N/A   Overcast
8:35 AM 4.3 °F -18.1 °F -4.0 °F 69% 30.21 in 10.0 mi North 24.2 mph - N/A   Overcast
8:55 AM 3.9 °F -18.5 °F -4.4 °F 69% 30.21 in 7.0 mi North 24.2 mph 33.4 mph N/A   Overcast
9:15 AM 3.9 °F -18.5 °F -4.4 °F 69% 30.21 in 10.0 mi North 24.2 mph 27.6 mph N/A   Overcast
9:35 AM 3.7 °F -16.9 °F -5.1 °F 67% 30.22 in 10.0 mi NNW 19.6 mph 28.8 mph N/A   Overcast
9:55 AM 3.7 °F -18.8 °F -5.6 °F 65% 30.22 in 10.0 mi North 24.2 mph 28.8 mph N/A   Overcast
10:15 AM 3.4 °F -19.7 °F -6.3 °F 64% 30.22 in 10.0 mi North 25.3 mph 32.2 mph N/A   Overcast
10:35 AM 3.6 °F -19.8 °F -7.1 °F 61% 30.23 in 7.0 mi North 26.5 mph 32.2 mph N/A   Overcast
10:55 AM 3.6 °F -19.0 °F -7.1 °F 61% 30.22 in 10.0 mi North 24.2 mph 28.8 mph N/A   Overcast
11:15 AM 3.4 °F -19.3 °F -7.8 °F 60% 30.22 in 10.0 mi NNW 24.2 mph 29.9 mph N/A   Overcast
11:35 AM 3.7 °F -18.8 °F -7.8 °F 59% 30.22 in 10.0 mi North 24.2 mph 27.6 mph N/A   Overcast
11:55 AM 3.6 °F -18.1 °F -8.3 °F 58% 30.21 in 10.0 mi North 21.9 mph 32.2 mph N/A   Overcast
12:15 PM 3.4 °F -17.4 °F -7.4 °F 61% 30.22 in 10.0 mi NNW 19.6 mph 29.9 mph N/A   Overcast
12:35 PM 3.2 °F -19.9 °F -8.0 °F 60% 30.21 in 10.0 mi NNW 25.3 mph 29.9 mph N/A   Overcast
12:55 PM 2.8 °F -20.4 °F -8.7 °F 59% 30.22 in 10.0 mi NNW 25.3 mph 33.4 mph N/A   Overcast
1:15 PM 3.2 °F -18.6 °F -9.0 °F 57% 30.22 in 10.0 mi NNW 21.9 mph 29.9 mph N/A   Scattered Clouds
1:35 PM 3.7 °F -19.2 °F -8.9 °F 56% 30.22 in 10.0 mi North 25.3 mph 31.1 mph N/A   Scattered Clouds
1:55 PM 4.1 °F -18.7 °F -9.0 °F 55% 30.23 in 10.0 mi NNW 25.3 mph 32.2 mph N/A   Clear
2:15 PM 4.1 °F -18.7 °F -9.2 °F 54% 30.24 in 10.0 mi NNW 25.3 mph 31.1 mph N/A   Scattered Clouds
2:35 PM 4.5 °F -19.4 °F -9.6 °F 52% 30.25 in 7.0 mi North 28.8 mph 32.2 mph N/A   Mostly Cloudy
2:55 PM 3.7 °F -18.8 °F -8.1 °F 58% 30.26 in 10.0 mi NNW 24.2 mph 27.6 mph N/A   Overcast
3:15 PM 3.7 °F -18.8 °F -8.0 °F 58% 30.27 in 10.0 mi NNW 24.2 mph 28.8 mph N/A   Overcast
3:35 PM 3.6 °F -19.0 °F -8.3 °F 58% 30.28 in 10.0 mi NNW 24.2 mph 29.9 mph N/A   Overcast
3:55 PM 3.2 °F -19.0 °F -7.8 °F 60% 30.29 in 10.0 mi NNW 23.0 mph 28.8 mph N/A   Mostly Cloudy
4:15 PM 3.2 °F -19.5 °F -7.8 °F 60% 30.30 in 10.0 mi NNW 24.2 mph 33.4 mph N/A   Scattered Clouds
4:35 PM 2.3 °F -21.1 °F -8.0 °F 62% 30.30 in 10.0 mi NNW 25.3 mph 33.4 mph N/A   Clear
4:55 PM 1.4 °F -21.0 °F -7.8 °F 65% 30.31 in 10.0 mi NNW 21.9 mph 26.5 mph N/A   Clear
5:15 PM 1.2 °F -21.7 °F -8.1 °F 65% 30.32 in 10.0 mi NNW 23.0 mph 31.1 mph N/A   Clear
5:35 PM 0.5 °F -21.6 °F -8.1 °F 67% 30.33 in 10.0 mi NNW 20.7 mph - N/A   Clear
5:55 PM 0.5 °F -20.6 °F -8.1 °F 67% 30.33 in 10.0 mi NW 18.4 mph - N/A   Clear
6:15 PM 0.7 °F -21.4 °F -7.6 °F 68% 30.33 in 10.0 mi NW 20.7 mph 28.8 mph N/A   Scattered Clouds
6:35 PM 0.3 °F -24.2 °F -11.2 °F 58% 30.34 in 5.0 mi NNW 26.5 mph 38.0 mph N/A   Haze
6:55 PM -0.4 °F -28.1 °F -12.6 °F 56% 30.35 in 7.0 mi NNW 35.7 mph 40.3 mph N/A   Clear
7:15 PM -1.5 °F -28.6 °F -15.0 °F 53% 30.35 in 4.0 mi NW 32.2 mph 43.7 mph N/A   Haze
7:35 PM -2.4 °F -29.8 °F -17.7 °F 48% 30.36 in 5.0 mi NNW 32.2 mph 41.4 mph N/A   Haze
7:55 PM -3.3 °F -26.6 °F -17.9 °F 50% 30.36 in 10.0 mi NW 20.7 mph 33.4 mph N/A   Clear
8:15 PM -4.0 °F -25.8 °F -18.0 °F 51% 30.36 in 10.0 mi NW 17.3 mph 26.5 mph N/A   Clear
8:35 PM -4.4 °F -28.6 °F -18.8 °F 50% 30.36 in 10.0 mi NW 21.9 mph 25.3 mph N/A   Clear
8:55 PM -4.9 °F -30.8 °F -18.6 °F 52% 30.36 in 10.0 mi NW 25.3 mph 31.1 mph N/A   Clear
9:15 PM -5.3 °F -30.3 °F -18.4 °F 53% 30.37 in 10.0 mi NW 23.0 mph 31.1 mph N/A   Clear
9:35 PM -6.0 °F -30.2 °F -18.4 °F 55% 30.37 in 10.0 mi NW 20.7 mph 28.8 mph N/A   Clear
9:55 PM -6.3 °F -32.2 °F -18.2 °F 56% 30.37 in 10.0 mi NNW 24.2 mph 29.9 mph N/A   Clear
10:15 PM -7.2 °F -31.3 °F -15.3 °F 68% 30.37 in 10.0 mi NNW 19.6 mph 27.6 mph N/A   Scattered Clouds
10:35 PM -7.6 °F -30.5 °F -18.0 °F 60% 30.37 in 10.0 mi NNW 17.3 mph - N/A   Mostly Cloudy